Hourly Data Report for October 28, 2013

All times are specified in Local Standard Time (LST). Add 1 hour to adjust for Daylight Saving Time where and when it is observed.

KAMLOOPS A
BRITISH COLUMBIA

50°42'09.000" N
120°26'55.000" W
345.30 m
1163781
71887
YKA

Download Data

Hourly Data (October 2013)
Hourly Data Report for October 28, 2013
Temp Definition
°C
Dew Point Temp Definition
°C
Rel Hum Definition
%
Wind Dir Definition
10's deg

Wind Spd Definition
km/h
Visibility Definition
km
Stn Press Definition
kPa
Hmdx Definition


Wind Chill Definition


Weather Definition


TIME
00:00 Legend Double Dagger 4.9 -3.4 55 29 22 64.4 98.43     LegendNANA
01:00 Legend Double Dagger 4.7 -3.6 55 28 21 64.4 98.42     Mainly Clear
02:00 Legend Double Dagger 4.0 -4.0 56 29 18 64.4 98.43     LegendNANA
03:00 Legend Double Dagger 3.8 -4.2 56 27 21 64.4 98.43     LegendNANA
04:00 Legend Double Dagger 3.1 -4.6 57 28 18 64.4 98.44     Clear
05:00 Legend Double Dagger 2.9 -4.6 58 28 17 64.4 98.46     LegendNANA
06:00 Legend Double Dagger 2.2 -4.8 60 27 15 64.4 98.47     LegendNANA
07:00 Legend Double Dagger 2.2 -5.2 58 27 21 64.4 98.49     Clear
08:00 Legend Double Dagger 3.2 -5.2 54 27 20 64.4 98.48     LegendNANA
09:00 Legend Double Dagger 4.1 -5.4 50 27 33 64.4 98.48     LegendNANA
10:00 Legend Double Dagger 4.7 -5.1 49 28 32 64.4 98.44     Clear
11:00 Legend Double Dagger 5.7 -4.7 47 27 29 64.4 98.37     LegendNANA
12:00 Legend Double Dagger 6.7 -4.7 44 28 31 64.4 98.25     LegendNANA
13:00 Legend Double Dagger 7.9 -4.5 41 28 25 64.4 98.15     Clear
14:00 Legend Double Dagger 9.0 -4.9 37 27 21 64.4 98.05     LegendNANA
15:00 Legend Double Dagger 9.3 -5.0 36 27 16 64.4 97.99     LegendNANA
16:00 Legend Double Dagger 8.4 -5.5 37 26 19 64.4 97.91     Clear
17:00 Legend Double Dagger 6.9 -5.5 41 27 20 64.4 97.90     LegendNANA
18:00 Legend Double Dagger 5.6 -5.1 46 27 13 64.4 97.94     LegendNANA
19:00 Legend Double Dagger 5.3 -4.8 48 27 17 64.4 97.94     Clear
20:00 Legend Double Dagger 4.9 -4.9 49 28 18 64.4 97.92     LegendNANA
21:00 Legend Double Dagger 3.7 -4.3 56 24 12 64.4 97.95     LegendNANA
22:00 Legend Double Dagger 2.6 -4.6 59 25 13 64.4 97.98     Clear
23:00 Legend Double Dagger 3.1 -4.6 57 21 8 64.4 97.96     LegendNANA

Notes on Data Quality.

Legend

  • E = Estimated
  • M = Missing
  • NA = Not Available
  • ‡ = Partner data that is not subject to review by the National Climate Archives
Date modified: